Location: *
(44.3683°N, 6.6958°E)
Time: 10:55:07
(UTC+00:00)

STARLINK-35 - Pass Details

Date: 14 October 2019
Orbit: 548 x 551 km, 53.0° (Epoch: 20 November)

Event Time Altitude Azimuth Distance (km) Brightness Sun altitude
Rises 17:20:32 0° 229° (SW) 2,704 8.2 -6.0°
Reaches altitude 10° 17:22:46 10° 228° (SW) 1,815 7.2 -6.4°
Maximum altitude 17:26:52 75° 144° (SE) 572 3.6 -7.1°
Drops below altitude 10° 17:31:01 10° 59° (ENE) 1,826 5.7 -7.8°
Enters shadow 17:31:34 - 58° (ENE) 2,044 6.0 -7.9°
